Main page
METAR-TAF:

METAR-TAF

Airports :

Troll A, Norway

Oil platform

latitude: 60-38-42N, longitude: 3-43-29E, elevation: 20 m

Current weather observation

The report was made 28 minutes ago, at 17:20 UTC
Wind 13 kt from the East/Northeast
Temperature 7°C
Humidity 66%
Pressure 1014 hPa
Visibility 10 km or more

METAR: ENQA 281720Z AUTO 06013KT 9999NDV OVC076/// 07/01 Q1014 W05/S3

Time: 19:48 (17:48 UTC)


TAF: missing

Weather observations and forecasts of more than 4000 airports (METAR and TAF reports).

The available stations are represented by yellow and red dots on the map.

Hover mouse over dot to see the name of the station.

Then click to see weather observations and forecasts.

To change the map : click on the green buttons with a black cross to zoom in, on the green button with a dash to zoom out, or on the green arrows for adjacent maps.


METAR-TAF: